Vorticity
8 6 11 2 9 12 4 11 5 16 1 23 8 6 6 4 9 6 11 7 10 18 47 11 9 16 12 15 24 46 73 16 26 33 11 -14 -3 7 -19 14 15 27 22 7
10 7 11 -0 13 7 8 13 6 2 16 -5 12 8 4 8 6 7 11 8 8 12 32 34 6 15 10 9 22 36 51 33 28 32 33 15 15 -15 20 -12 7 4 4 19
-0 15 6 5 4 10 5 6 7 7 12 7 17 10 6 8 7 8 10 10 7 10 17 49 10 17 11 11 11 38 40 51 -0 12 34 50 4 -3 5 -6 3 3 -1 15
16 9 2 6 14 7 8 8 5 10 8 13 16 11 6 8 7 8 10 11 7 9 14 26 32 17 14 12 10 41 25 29 48 16 19 39 12 9 -6 3 17 3 -14 -30
13 6 10 13 5 14 11 4 11 10 13 15 12 5 8 7 7 9 10 12 8 8 12 22 44 14 14 12 11 37 22 17 29 24 35 52 39 10 -9 -10 1 8 -16 -1
13 19 3 9 15 7 6 12 6 6 10 14 15 4 7 7 7 10 11 11 8 8 10 16 33 26 18 9 20 6 30 20 12 10 11 25 71 25 -9 7 -5 1 -21 4
4 6 6 9 8 10 8 7 12 10 13 18 9 6 8 6 10 9 13 10 9 8 10 17 25 46 14 14 11 18 39 6 16 12 -4 -14 26 31 49 1 6 5 9 2
10 7 6 11 13 6 7 8 7 10 20 12 6 7 7 9 8 11 12 10 9 8 11 14 23 34 20 15 12 15 39 13 3 11 9 22 9 29 52 3 11 13 29 -15
2 9 10 9 9 7 6 6 12 23 18 5 6 8 8 9 10 12 10 8 9 10 13 14 19 28 36 16 11 11 25 44 1 15 9 10 10 17 70 5 -9 4 5 -3
5 12 11 9 7 5 10 18 19 18 4 6 8 8 9 10 12 10 8 9 10 12 14 15 18 30 36 18 8 14 13 23 17 -3 -13 -19 -39 1 49 37 2 -3 10 22
6 8 10 11 10 11 15 21 13 2 8 7 9 9 12 9 9 8 9 10 12 15 15 16 18 21 24 27 14 10 18 17 21 32 11 22 16 20 19 63 25 15 12 39
11 13 12 12 16 23 16 2 7 8 8 9 10 12 8 9 9 10 11 13 15 17 18 18 19 21 26 38 16 7 11 20 18 16 21 28 -7 -1 -7 14 38 33 -25 -18
14 14 13 17 12 6 9 9 7 11 8 16 7 9 10 11 11 12 14 16 17 18 19 20 20 20 21 32 21 11 10 15 19 18 9 19 -2 12 33 18 38 27 -28 24
14 12 15 10 9 9 8 12 10 16 7 9 11 13 13 13 14 15 17 18 18 18 19 19 21 20 18 25 33 15 7 15 18 18 8 15 8 7 18 42 5 18 7 25
7 10 14 7 9 11 12 16 7 9 12 13 12 12 15 15 17 17 18 19 19 18 18 18 20 19 18 25 39 18 10 8 12 29 4 12 14 15 6 9 36 -23 19 5
17 16 8 7 11 15 9 11 11 11 11 11 15 17 17 18 18 17 18 19 18 16 16 17 18 18 19 22 35 22 11 11 9 24 18 14 20 13 -1 12 20 20 14 20
9 8 9 12 12 9 10 12 12 12 15 19 19 19 18 17 16 16 16 16 17 16 16 18 17 16 19 21 29 31 13 9 12 10 29 17 14 8 16 1 -1 -2 16 40
9 13 11 7 12 13 13 14 17 18 20 20 19 16 16 16 15 15 15 14 14 14 15 17 19 16 20 19 25 36 14 14 9 9 13 18 21 12 22 7 9 -4 0 20
9 10 10 13 13 15 17 19 18 20 21 17 16 16 16 15 15 15 15 17 18 19 19 19 18 16 19 19 22 32 21 12 12 11 4 18 18 23 2 19 5 -2 11 6
12 14 15 15 17 19 19 19 20 20 17 16 16 15 14 16 19 22 22 22 22 22 21 21 20 17 18 19 20 29 28 12 15 8 8 9 21 14 11 3 -5 -1 -2 -7
14 15 18 19 19 19 19 19 17 15 17 16 14 17 22 25 24 22 22 21 22 21 22 22 21 19 17 19 18 25 31 15 13 16 10 6 19 20 17 7 -5 2 7 10
19 20 20 20 18 18 18 16 15 17 16 16 20 23 23 21 20 19 19 19 20 22 22 20 21 20 17 19 18 21 30 22 10 14 12 9 11 25 22 14 10 14 2 -6
19 20 19 17 16 17 16 13 17 16 16 22 23 21 21 21 21 20 19 18 21 24 23 20 20 20 18 19 17 20 27 29 11 15 16 12 7 19 23 19 4 14 7 12
16 19 19 16 15 17 15 13 16 15 21 24 21 19 20 20 19 19 20 18 22 25 18 20 21 19 20 18 18 19 24 29 17 8 18 16 7 10 20 25 14 6 6 6
12 16 19 17 15 18 14 13 15 14 23 24 21 18 15 15 14 16 19 17 22 24 20 19 20 18 19 18 19 19 23 28 24 11 8 16 17 7 16 26 18 4 9 3
11 13 18 17 15 17 14 13 14 13 21 25 24 19 14 15 16 21 21 17 21 24 20 18 18 18 18 18 19 19 23 26 27 18 8 15 14 10 11 19 23 11 5 4
11 10 14 18 16 14 15 10 13 12 15 24 25 21 18 17 16 21 25 17 20 23 20 18 17 16 16 17 18 19 23 24 27 26 10 8 16 15 17 10 22 12 17 11
Height
5539 5532 5523 5518 5510 5507 5495 5492 5475 5477 5461 5464 5449 5444 5440 5435 5428 5422 5416 5411 5405 5397 5389 5388 5385 5383 5385 5384 5385 5388 5397 5411 5425 5443 5463 5483 5501 5520 5538 5553 5570 5588 5601 5611
5524 5518 5510 5504 5502 5494 5485 5478 5465 5457 5457 5443 5439 5435 5431 5425 5418 5412 5406 5399 5394 5388 5382 5378 5376 5373 5373 5373 5373 5377 5384 5397 5410 5427 5446 5466 5485 5503 5520 5536 5554 5571 5585 5597
5500 5499 5493 5492 5490 5482 5473 5464 5453 5444 5443 5436 5430 5425 5421 5414 5408 5402 5395 5389 5383 5378 5373 5368 5366 5364 5363 5363 5363 5365 5371 5382 5400 5415 5431 5446 5467 5486 5502 5521 5538 5556 5572 5583
5480 5474 5475 5479 5471 5465 5457 5451 5441 5434 5428 5423 5420 5415 5410 5403 5397 5390 5384 5379 5373 5368 5363 5358 5357 5355 5355 5355 5357 5359 5364 5375 5390 5403 5415 5429 5451 5471 5489 5506 5524 5542 5558 5571
5465 5459 5454 5463 5456 5448 5438 5437 5432 5420 5416 5411 5407 5404 5398 5391 5385 5379 5373 5368 5362 5357 5352 5347 5345 5346 5347 5348 5349 5353 5358 5369 5383 5396 5406 5421 5436 5454 5475 5493 5509 5527 5543 5557
5452 5444 5433 5443 5439 5432 5421 5420 5415 5411 5405 5399 5394 5391 5386 5378 5373 5367 5361 5356 5350 5345 5341 5337 5334 5335 5338 5339 5341 5344 5350 5360 5373 5386 5400 5413 5422 5436 5458 5479 5495 5512 5530 5547
5439 5425 5419 5427 5421 5413 5407 5402 5398 5395 5391 5387 5383 5378 5373 5366 5359 5353 5349 5343 5338 5333 5329 5326 5322 5323 5327 5330 5332 5336 5341 5349 5361 5375 5388 5403 5414 5425 5442 5465 5481 5497 5518 5531
5426 5414 5406 5410 5403 5399 5391 5384 5381 5378 5374 5371 5368 5363 5358 5352 5346 5340 5335 5329 5325 5320 5316 5314 5312 5311 5314 5320 5323 5328 5332 5341 5353 5367 5379 5392 5403 5407 5429 5451 5467 5483 5502 5517
5412 5406 5400 5393 5388 5381 5376 5370 5365 5361 5358 5355 5351 5347 5342 5336 5331 5326 5320 5315 5310 5306 5302 5300 5299 5299 5301 5307 5313 5319 5324 5331 5341 5356 5369 5378 5393 5403 5416 5437 5454 5467 5485 5503
5394 5397 5386 5378 5372 5365 5359 5354 5349 5345 5342 5338 5334 5329 5324 5319 5315 5311 5305 5299 5295 5291 5288 5285 5284 5285 5289 5293 5301 5307 5315 5321 5330 5343 5356 5367 5382 5396 5402 5421 5437 5452 5472 5489
5380 5379 5369 5365 5357 5348 5343 5338 5334 5330 5325 5320 5315 5311 5306 5302 5298 5294 5289 5283 5280 5275 5272 5270 5270 5270 5275 5280 5288 5295 5302 5311 5320 5330 5344 5358 5371 5384 5388 5402 5425 5446 5461 5477
5362 5360 5352 5347 5340 5333 5327 5322 5317 5312 5307 5302 5298 5293 5288 5283 5279 5275 5271 5267 5263 5259 5256 5254 5255 5255 5259 5266 5274 5283 5290 5298 5308 5320 5332 5344 5359 5372 5378 5391 5412 5432 5446 5460
5347 5341 5335 5330 5325 5319 5312 5306 5301 5295 5290 5285 5280 5275 5270 5264 5260 5256 5252 5248 5245 5242 5240 5239 5239 5240 5245 5251 5259 5269 5278 5286 5296 5308 5320 5332 5345 5355 5365 5375 5392 5415 5432 5444
5330 5325 5320 5314 5309 5303 5296 5290 5284 5278 5272 5267 5262 5256 5251 5246 5240 5236 5233 5231 5227 5225 5224 5224 5224 5225 5230 5236 5244 5255 5265 5275 5284 5294 5307 5320 5333 5346 5356 5364 5382 5403 5419 5434
5314 5309 5304 5297 5291 5285 5279 5272 5266 5260 5253 5247 5242 5237 5231 5226 5221 5217 5215 5213 5211 5209 5209 5210 5210 5211 5216 5222 5230 5240 5251 5262 5273 5283 5294 5307 5321 5333 5346 5354 5369 5389 5405 5418
5298 5292 5286 5280 5274 5268 5262 5255 5248 5242 5234 5228 5222 5216 5212 5207 5203 5200 5197 5197 5195 5194 5194 5196 5196 5198 5202 5208 5216 5226 5237 5248 5260 5271 5282 5295 5308 5320 5333 5344 5357 5379 5388 5402
5281 5275 5268 5262 5256 5250 5243 5236 5230 5223 5216 5209 5203 5197 5193 5189 5186 5183 5181 5180 5180 5179 5180 5183 5183 5185 5190 5195 5203 5212 5223 5235 5247 5259 5270 5282 5294 5307 5319 5328 5344 5362 5376 5390
5263 5257 5251 5244 5238 5231 5224 5217 5211 5204 5198 5191 5184 5179 5175 5171 5169 5166 5166 5165 5164 5164 5165 5169 5170 5173 5178 5183 5190 5199 5210 5222 5235 5247 5258 5270 5282 5295 5307 5319 5336 5352 5366 5378
5246 5240 5234 5227 5220 5213 5206 5199 5192 5186 5181 5174 5167 5162 5158 5154 5152 5150 5148 5148 5148 5148 5150 5154 5157 5161 5166 5172 5177 5186 5198 5210 5223 5235 5246 5258 5271 5283 5297 5308 5325 5342 5354 5366
5230 5224 5217 5210 5203 5196 5189 5182 5176 5171 5165 5158 5152 5146 5141 5138 5135 5132 5131 5130 5131 5133 5135 5139 5144 5149 5154 5160 5167 5175 5186 5199 5211 5224 5235 5247 5260 5272 5285 5295 5313 5330 5340 5353
5216 5208 5201 5195 5188 5182 5175 5168 5162 5156 5150 5142 5136 5131 5126 5122 5119 5117 5116 5116 5118 5119 5123 5126 5131 5136 5143 5151 5156 5165 5175 5187 5200 5213 5226 5238 5249 5261 5275 5286 5302 5317 5329 5345
5202 5195 5188 5181 5175 5169 5162 5155 5149 5142 5136 5128 5122 5117 5113 5110 5107 5105 5105 5105 5106 5109 5113 5115 5120 5125 5133 5140 5146 5155 5165 5177 5189 5202 5215 5228 5240 5251 5264 5274 5290 5304 5320 5335
5191 5184 5177 5171 5164 5158 5151 5145 5138 5131 5124 5117 5111 5107 5103 5100 5097 5096 5096 5096 5097 5100 5102 5105 5111 5117 5124 5128 5138 5146 5155 5167 5180 5192 5205 5218 5232 5241 5252 5263 5278 5295 5308 5324
5181 5175 5168 5161 5155 5148 5142 5136 5129 5122 5114 5107 5101 5098 5095 5092 5090 5089 5089 5088 5090 5092 5093 5098 5104 5109 5116 5122 5129 5138 5147 5157 5170 5183 5195 5208 5221 5231 5241 5254 5268 5284 5300 5314
5173 5166 5159 5153 5146 5141 5135 5128 5121 5114 5106 5099 5094 5091 5088 5086 5084 5082 5082 5082 5084 5085 5088 5092 5098 5104 5109 5116 5123 5131 5139 5149 5161 5174 5186 5198 5210 5223 5232 5245 5258 5274 5289 5303
5165 5159 5152 5146 5140 5134 5128 5122 5115 5109 5102 5095 5089 5086 5082 5080 5078 5077 5076 5077 5078 5080 5083 5088 5094 5099 5105 5111 5118 5125 5133 5142 5153 5165 5178 5189 5202 5214 5224 5237 5249 5263 5279 5292
5158 5152 5146 5139 5133 5128 5123 5117 5111 5105 5098 5092 5086 5081 5078 5076 5074 5072 5071 5072 5074 5077 5080 5085 5090 5096 5101 5107 5114 5120 5128 5136 5146 5158 5170 5182 5194 5206 5218 5229 5241 5254 5267 5282